Voltar ao catálogo

ONEWEB-0324

AtivoComunicaçõesPO
NORAD 49193·PAYLOAD·🇬🇧 United Kingdom

Lançado Sep 14, 2021 de Baikonur Cosmodrome

Loading…

Próximas Passagens (próximas 24 horas)

TLE

AtualizadoSource: CelesTrak SupGP

Época: Sep 14, 2026, 23:31 UTC

1 49193C 21083H   26257.98005046  .00001044  00000+0  26521-2 0  2577
2 49193  87.9171 317.6151 0001763 100.4421 293.1467 13.18685459    17

Acompanhe ONEWEB-0324 em tempo real com AllMySat

Download on the App Store